This is the latest recevied weather packets stored in our database for station/object DL8TF-13. If no packets are shown the sender has not sent any weather packets the latest 10 day(s).
| Time | Temp. | Humidity | Pressure | Rain* | Wind** | Luminosity | Snow |
|---|---|---|---|---|---|---|---|
| 1778001852 | 16.67° C | 99% | 976 hPa | - | - | - | - |
| 1778001252 | 16.67° C | 96% | 976 hPa | - | - | - | - |
| 1778000652 | 17.22° C | 91% | 976 hPa | - | - | - | - |
| 1778000052 | 17.78° C | 89% | 976 hPa | - | - | - | - |
| 1777999452 | 18.33° C | 93% | 975 hPa | - | - | - | - |
| 1777998852 | 17.78° C | 93% | 975 hPa | - | - | - | - |
| 1777998252 | 17.78° C | 95% | 976 hPa | - | - | - | - |
| 1777997652 | 18.89° C | 91% | 975 hPa | - | - | - | - |
| 1777997051 | 18.89° C | 97% | 975 hPa | - | - | - | - |
| 1777996451 | 17.78° C | 100% | 976 hPa | - | - | - | - |
| 1777995851 | 16.67° C | 100% | 976 hPa | - | - | - | - |
| 1777995251 | 16.67° C | 100% | 976 hPa | - | - | - | - |
| 1777994651 | 16.67° C | 100% | 976 hPa | - | - | - | - |
| 1777994051 | 16.11° C | 100% | 976 hPa | - | - | - | - |
| 1777993451 | 16.11° C | 100% | 976 hPa | - | - | - | - |
| 1777992851 | 16.11° C | 100% | 976 hPa | - | - | - | - |
| 1777992251 | 16.11° C | 100% | 976 hPa | - | - | - | - |
| 1777991651 | 16.11° C | 100% | 976 hPa | - | - | - | - |
| 1777991050 | 15.56° C | 100% | 977 hPa | - | - | - | - |
| 1777990450 | 15° C | 100% | 977 hPa | - | - | - | - |
| 1777989850 | 15° C | 100% | 977 hPa | - | - | - | - |
| 1777989250 | 15° C | 100% | 977 hPa | - | - | - | - |
| 1777988650 | 15° C | 100% | 977 hPa | - | - | - | - |
| 1777988050 | 14.44° C | 100% | 977 hPa | - | - | - | - |
| 1777987449 | 15.56° C | 100% | 977 hPa | - | - | - | - |
* Rain since midnight (hover to see other rain measurements)
** Current wind speed in m/s (hover to see current wind gust speed)